This is the latest recevied weather packets stored in our database for station/object CE3MXM-12. If no packets are shown the sender has not sent any weather packets the latest 10 day(s).
| Time | Temp. | Humidity | Pressure | Rain* | Wind** | Luminosity | Snow |
|---|---|---|---|---|---|---|---|
| 1777776533 | 15.56° C | 31% | 1016.3 hPa | - | - | - | - |
| 1777776233 | 15° C | 32% | 1016.4 hPa | - | - | - | - |
| 1777775933 | 14.44° C | 33% | 1016.2 hPa | - | - | - | - |
| 1777775632 | 13.89° C | 34% | 1016.3 hPa | - | - | - | - |
| 1777775332 | 13.89° C | 34% | 1016.2 hPa | - | - | - | - |
| 1777775032 | 13.89° C | 35% | 1016.2 hPa | - | - | - | - |
| 1777774732 | 13.89° C | 35% | 1016.1 hPa | - | - | - | - |
| 1777774432 | 13.33° C | 36% | 1016.2 hPa | - | - | - | - |
| 1777774132 | 13.33° C | 35% | 1016.3 hPa | - | - | - | - |
| 1777773832 | 14.44° C | 34% | 1016 hPa | - | - | - | - |
| 1777773532 | 14.44° C | 34% | 1016.3 hPa | - | - | - | - |
| 1777773232 | 14.44° C | 33% | 1016.4 hPa | - | - | - | - |
| 1777772931 | 14.44° C | 32% | 1016.6 hPa | - | - | - | - |
| 1777772631 | 15° C | 31% | 1016.6 hPa | - | - | - | - |
| 1777772331 | 15° C | 31% | 1016.3 hPa | - | - | - | - |
| 1777772031 | 15° C | 30% | 1016.5 hPa | - | - | - | - |
| 1777771731 | 14.44° C | 31% | 1016.6 hPa | - | - | - | - |
| 1777771431 | 14.44° C | 32% | 1016.5 hPa | - | - | - | - |
| 1777771131 | 14.44° C | 32% | 1016.7 hPa | - | - | - | - |
| 1777770831 | 13.89° C | 33% | 1016.6 hPa | - | - | - | - |
| 1777770531 | 13.89° C | 33% | 1016.7 hPa | - | - | - | - |
| 1777770231 | 13.33° C | 33% | 1016.5 hPa | - | - | - | - |
| 1777769931 | 13.33° C | 33% | 1016.5 hPa | - | - | - | - |
| 1777769631 | 13.89° C | 32% | 1016.4 hPa | - | - | - | - |
| 1777769331 | 14.44° C | 31% | 1016.3 hPa | - | - | - | - |
* Rain since midnight (hover to see other rain measurements)
** Current wind speed in m/s (hover to see current wind gust speed)